World > North America > United States > New Jersey

Washington, New Jersey Regional Weather

Lat: 40.76N, Lon: 74.98W
Wx Zone: NJZ007
Warning NWS WEATHER ALERT - (More Info. Click Here) Warning
Feedback

Washington, NJ Regional Weather

Expires:201910162000;;806888
ASUS41 KPHI 161912
RWRPHI

REGIONAL WEATHER ROUNDUP
NATIONAL WEATHER SERVICE MOUNT HOLLY NJ
300 PM EDT WED OCT 16 2019

NOTE:  "FAIR" INDICATES FEW OR NO CLOUDS BELOW 12,000 FEET WITH NO
SIGNIFICANT WEATHER AND/OR OBSTRUCTIONS TO VISIBILITY.

 * = STATION DOES NOT REPORT PRECIPITATION (E.G. RAIN, SNOW, ETC.) 
        OR FOG.


NJZ001>014-162000-
NORTHERN NEW JERSEY
  
CITY           SKY/WX    TMP DP  RH WIND       PRES   REMARKS
SUSSEX         HVY RAIN  61  58  90 SE5       29.66F FOG              
ANDOVER*         N/A     61  58  90 S9        29.67F                  
MORRISTOWN     LGT RAIN  63  63 100 SE9G20    29.68F FOG              
NEWARK         RAIN      64  61  90 SE13G24   29.66F FOG              
TETERBORO      RAIN      67  59  75 SE14G25   29.66F FOG              
CALDWELL       RAIN      65  62  90 SE14      29.67F FOG              
SOMERVILLE     LGT RAIN  63  60  90 VRB3      29.61F FOG              
ALLAIRE*       LGT RAIN  65  62  90 E21G30    29.64F                  
TOMS RIVER*    CLOUDY    67  32  27 SE16      29.63F                  

$$

SKY/WX - Weather  TMP - Temperature  DP - Dew Point  RH - Relative Humidity
WIND - Wind Direction/Speed PRES - Barometric Pressure VSB - Visibility
WCI - Wind Chill Index E13G22 Wind - East Wind 13 mph/Gusts of 22 mph